| time (UTC) | temp C | wind direction | speed KPH | gust KPH | rain 1hr cm | rain 24hr cm | rain mn cm | humidity % | barometer mb |
| 20260508071539 | 6 | 0 | 0.0 | 0.0 | 0.00 | 0.71 | 0.00 | 89 | 1014.4 |
| 20260508071022 | 6 | 0 | 0.0 | 0.0 | 0.00 | 0.71 | 0.00 | 89 | 1014.4 |
| 20260508070606 | 6 | 126 | 0.0 | 0.0 | 0.00 | 0.66 | 0.00 | 89 | 1016.4 |
| 20260508070524 | 6 | 0 | 0.0 | 0.0 | 0.00 | 0.71 | 0.00 | 89 | 1014.4 |
| 20260508070045 | 6 | 0 | 0.0 | 0.0 | 0.00 | 0.71 | 0.00 | 89 | 1014.4 |
| 20260508065612 | 6 | 126 | 0.0 | 0.0 | 0.00 | 0.71 | 0.00 | 89 | 1016.4 |
| 20260508065525 | 6 | 0 | 0.0 | 0.0 | 0.00 | 0.74 | 0.00 | 89 | 1014.3 |
| 20260508065021 | 6 | 0 | 0.0 | 0.0 | 0.00 | 0.74 | 0.00 | 89 | 1014.3 |
| 20260508064601 | 6 | 0 | 0.0 | 1.6 | 0.00 | 0.74 | 0.00 | 89 | 1014.3 |
| 20260508064550 | 6 | 126 | 0.0 | 0.0 | 0.00 | 0.71 | 0.00 | 89 | 1016.4 |
| 20260508064022 | 6 | 0 | 0.0 | 1.6 | 0.00 | 0.74 | 0.00 | 89 | 1014.2 |
| 20260508063522 | 6 | 0 | 0.0 | 1.6 | 0.00 | 0.74 | 0.00 | 89 | 1014.3 |
| 20260508063046 | 6 | 0 | 0.0 | 0.0 | 0.00 | 0.74 | 0.00 | 88 | 1014.3 |
| 20260508062521 | 6 | 0 | 0.0 | 0.0 | 0.00 | 0.74 | 0.00 | 89 | 1014.4 |
| 20260508062022 | 6 | 0 | 0.0 | 0.0 | 0.00 | 0.74 | 0.00 | 89 | 1014.3 |
| 20260508061543 | 6 | 0 | 0.0 | 0.0 | 0.00 | 0.74 | 0.00 | 88 | 1014.4 |
| 20260508061203 | 7 | 126 | 0.0 | 0.0 | 0.00 | 0.71 | 0.00 | 88 | 1016.4 |
| 20260508061025 | 7 | 0 | 0.0 | 0.0 | 0.00 | 0.74 | 0.00 | 88 | 1014.3 |
| 20260508060522 | 7 | 0 | 0.0 | 1.6 | 0.00 | 0.74 | 0.00 | 88 | 1014.4 |
| 20260508060041 | 7 | 0 | 0.0 | 1.6 | 0.00 | 0.74 | 0.00 | 89 | 1014.4 |
| 20260508055522 | 7 | 0 | 0.0 | 1.6 | 0.00 | 0.76 | 0.00 | 89 | 1014.3 |
| 20260508055052 | 7 | 126 | 0.0 | 0.0 | 0.00 | 0.71 | 0.00 | 89 | 1016.4 |
| 20260508055021 | 7 | 0 | 0.0 | 1.6 | 0.00 | 0.76 | 0.00 | 89 | 1014.3 |
| 20260508054540 | 7 | 0 | 0.0 | 1.6 | 0.00 | 0.76 | 0.00 | 88 | 1014.4 |
| 20260508054040 | 7 | 126 | 0.0 | 0.0 | 0.00 | 0.71 | 0.00 | 88 | 1016.2 |
| 20260508054021 | 7 | 0 | 0.0 | 1.6 | 0.00 | 0.76 | 0.00 | 88 | 1014.3 |
| 20260508053522 | 7 | 0 | 0.0 | 1.6 | 0.00 | 0.76 | 0.00 | 88 | 1014.3 |
| 20260508053103 | 7 | 126 | 0.0 | 0.0 | 0.00 | 0.71 | 0.00 | 89 | 1016.1 |
| 20260508053038 | 7 | 0 | 0.0 | 1.6 | 0.00 | 0.76 | 0.00 | 88 | 1014.2 |
| 20260508052523 | 7 | 0 | 0.0 | 1.6 | 0.00 | 0.76 | 0.00 | 88 | 1014.1 |
| 20260508052036 | 7 | 126 | 0.0 | 0.0 | 0.00 | 0.71 | 0.00 | 88 | 1016.1 |
| 20260508052021 | 7 | 0 | 0.0 | 1.6 | 0.00 | 0.76 | 0.00 | 88 | 1014.1 |
| 20260508051536 | 7 | 0 | 0.0 | 0.0 | 0.00 | 0.76 | 0.00 | 88 | 1014.1 |
| 20260508051022 | 7 | 0 | 0.0 | 0.0 | 0.00 | 0.76 | 0.00 | 88 | 1014.0 |
| 20260508050522 | 7 | 0 | 0.0 | 1.6 | 0.00 | 0.76 | 0.00 | 88 | 1014.0 |
| 20260508050048 | 7 | 0 | 0.0 | 1.6 | 0.00 | 0.76 | 0.00 | 88 | 1014.0 |
| 20260508045940 | 8 | 126 | 0.0 | 0.0 | 0.00 | 0.74 | 0.00 | 88 | 1016.1 |
| 20260508045521 | 7 | 0 | 0.0 | 1.6 | 0.00 | 0.76 | 0.00 | 88 | 1014.0 |
| 20260508045021 | 7 | 0 | 0.0 | 1.6 | 0.00 | 0.76 | 0.00 | 88 | 1014.1 |
| 20260508044953 | 8 | 126 | 0.0 | 0.0 | 0.00 | 0.74 | 0.00 | 88 | 1016.1 |
| 20260508044541 | 8 | 126 | 0.0 | 1.6 | 0.00 | 0.76 | 0.00 | 88 | 1014.0 |
| 20260508044021 | 8 | 0 | 0.0 | 0.0 | 0.00 | 0.76 | 0.00 | 88 | 1014.0 |
| 20260508043932 | 8 | 126 | 0.0 | 0.0 | 0.00 | 0.74 | 0.00 | 88 | 1015.9 |
| 20260508043524 | 8 | 0 | 0.0 | 0.0 | 0.00 | 0.76 | 0.00 | 88 | 1013.9 |
| 20260508043040 | 8 | 0 | 0.0 | 0.0 | 0.00 | 0.76 | 0.00 | 88 | 1013.8 |
| 20260508042521 | 8 | 0 | 0.0 | 1.6 | 0.00 | 0.76 | 0.00 | 88 | 1013.7 |
| 20260508042019 | 8 | 0 | 0.0 | 1.6 | 0.00 | 0.76 | 0.00 | 88 | 1013.6 |
| 20260508041540 | 8 | 0 | 0.0 | 0.0 | 0.00 | 0.76 | 0.00 | 88 | 1013.6 |
| 20260508041019 | 8 | 0 | 0.0 | 0.0 | 0.00 | 0.76 | 0.00 | 88 | 1013.6 |
| 20260508040607 | 8 | 126 | 0.0 | 0.0 | 0.00 | 0.74 | 0.00 | 88 | 1015.7 |
| 20260508040522 | 8 | 0 | 0.0 | 0.0 | 0.00 | 0.76 | 0.00 | 88 | 1013.6 |
| 20260508040037 | 8 | 0 | 0.0 | 0.0 | 0.00 | 0.76 | 0.00 | 88 | 1013.8 |
| 20260508035608 | 9 | 126 | 0.0 | 0.0 | 0.00 | 0.74 | 0.76 | 88 | 1015.8 |
| 20260508035521 | 8 | 0 | 0.0 | 1.6 | 0.00 | 0.84 | 0.76 | 88 | 1013.7 |
| 20260508035019 | 8 | 0 | 0.0 | 1.6 | 0.00 | 0.84 | 0.76 | 88 | 1013.6 |
| 20260508034541 | 9 | 0 | 0.0 | 1.6 | 0.00 | 0.84 | 0.76 | 88 | 1013.6 |
| 20260508034538 | 9 | 126 | 0.0 | 0.0 | 0.00 | 0.74 | 0.76 | 88 | 1015.6 |
| 20260508034021 | 9 | 0 | 0.0 | 1.6 | 0.00 | 0.84 | 0.76 | 88 | 1013.5 |
| 20260508033520 | 9 | 0 | 0.0 | 1.6 | 0.00 | 0.84 | 0.76 | 88 | 1013.5 |
| 20260508033517 | 9 | 126 | 0.0 | 0.0 | 0.00 | 0.74 | 0.76 | 88 | 1015.5 |
| 20260508033042 | 9 | 0 | 0.0 | 0.0 | 0.00 | 0.84 | 0.76 | 88 | 1013.5 |
| 20260508032521 | 9 | 0 | 0.0 | 1.6 | 0.00 | 0.84 | 0.76 | 88 | 1013.6 |
| 20260508032448 | 10 | 126 | 0.0 | 0.0 | 0.00 | 0.74 | 0.76 | 88 | 1015.6 |
| 20260508032021 | 9 | 0 | 0.0 | 1.6 | 0.00 | 0.84 | 0.76 | 88 | 1013.5 |
| 20260508031541 | 10 | 0 | 0.0 | 1.6 | 0.00 | 0.84 | 0.76 | 88 | 1013.4 |
| 20260508031423 | 10 | 126 | 0.0 | 0.0 | 0.00 | 0.79 | 0.76 | 88 | 1015.5 |
| 20260508031021 | 10 | 0 | 0.0 | 1.6 | 0.00 | 0.84 | 0.76 | 88 | 1013.2 |
| 20260508030521 | 10 | 0 | 0.0 | 1.6 | 0.00 | 0.84 | 0.76 | 88 | 1013.3 |
| 20260508030412 | 10 | 126 | 0.0 | 0.0 | 0.00 | 0.81 | 0.76 | 88 | 1015.3 |
| 20260508030043 | 10 | 0 | 0.0 | 0.0 | 0.00 | 0.84 | 0.76 | 88 | 1013.3 |
| 20260508025521 | 10 | 0 | 0.0 | 0.0 | 0.00 | 0.86 | 0.76 | 88 | 1013.2 |
| 20260508025358 | 10 | 126 | 0.0 | 0.0 | 0.00 | 0.81 | 0.76 | 88 | 1015.2 |
| 20260508025025 | 10 | 0 | 0.0 | 0.0 | 0.00 | 0.86 | 0.76 | 88 | 1013.1 |
| 20260508024541 | 10 | 0 | 0.0 | 3.2 | 0.00 | 0.86 | 0.76 | 88 | 1013.2 |
| 20260508024021 | 10 | 0 | 0.0 | 3.2 | 0.00 | 0.86 | 0.76 | 88 | 1013.2 |
| 20260508023521 | 10 | 126 | 1.6 | 3.2 | 0.00 | 0.86 | 0.76 | 88 | 1013.0 |
| 20260508023317 | 11 | 126 | 0.0 | 0.0 | 0.00 | 0.84 | 0.76 | 88 | 1015.0 |
| 20260508023040 | 10 | 0 | 0.0 | 1.6 | 0.00 | 0.86 | 0.76 | 88 | 1012.9 |
| 20260508022521 | 11 | 0 | 0.0 | 1.6 | 0.00 | 0.86 | 0.76 | 88 | 1012.8 |
| 20260508022307 | 11 | 126 | 0.0 | 0.0 | 0.00 | 0.84 | 0.76 | 88 | 1014.8 |
| 20260508022022 | 11 | 0 | 0.0 | 1.6 | 0.00 | 0.86 | 0.76 | 88 | 1012.7 |
| 20260508021540 | 11 | 0 | 0.0 | 1.6 | 0.00 | 0.86 | 0.76 | 88 | 1012.7 |
| 20260508021020 | 11 | 0 | 0.0 | 3.2 | 0.00 | 0.86 | 0.76 | 88 | 1012.7 |
| 20260508020521 | 11 | 126 | 0.0 | 3.2 | 0.00 | 0.86 | 0.76 | 88 | 1012.5 |
| 20260508020152 | 11 | 126 | 0.0 | 0.0 | 0.00 | 0.84 | 0.76 | 88 | 1014.5 |
| 20260508020046 | 11 | 0 | 0.0 | 3.2 | 0.00 | 0.86 | 0.76 | 88 | 1012.5 |
| 20260508015521 | 11 | 0 | 0.0 | 3.2 | 0.00 | 0.91 | 0.76 | 88 | 1012.3 |
| 20260508015126 | 11 | 126 | 0.0 | 1.6 | 0.00 | 0.86 | 0.76 | 88 | 1014.3 |
| 20260508015021 | 11 | 168 | 0.0 | 3.2 | 0.00 | 0.91 | 0.76 | 88 | 1012.2 |
| 20260508014541 | 11 | 168 | 0.0 | 3.2 | 0.00 | 0.91 | 0.76 | 88 | 1012.2 |
| 20260508014120 | 12 | 220 | 0.0 | 1.6 | 0.00 | 0.86 | 0.76 | 88 | 1014.1 |
| 20260508014022 | 11 | 220 | 0.0 | 3.2 | 0.00 | 0.91 | 0.76 | 88 | 1012.0 |
| 20260508013521 | 12 | 0 | 0.0 | 4.8 | 0.00 | 0.91 | 0.76 | 88 | 1011.9 |
| 20260508013106 | 12 | 154 | 0.0 | 3.2 | 0.00 | 0.86 | 0.76 | 88 | 1013.9 |
| 20260508013039 | 12 | 154 | 0.0 | 4.8 | 0.00 | 0.91 | 0.76 | 88 | 1011.9 |
| 20260508012521 | 12 | 151 | 1.6 | 4.8 | 0.00 | 0.91 | 0.76 | 88 | 1011.8 |
| 20260508012112 | 12 | 136 | 0.0 | 1.6 | 0.00 | 0.86 | 0.76 | 88 | 1013.9 |
| 20260508012024 | 12 | 122 | 0.0 | 3.2 | 0.00 | 0.91 | 0.76 | 88 | 1011.7 |
| 20260508011548 | 12 | 0 | 0.0 | 3.2 | 0.00 | 0.91 | 0.76 | 88 | 1011.8 |
| 20260508011111 | 12 | 122 | 0.0 | 0.0 | 0.00 | 0.86 | 0.76 | 88 | 1013.7 |
| 20260508011021 | 12 | 0 | 0.0 | 3.2 | 0.00 | 0.91 | 0.76 | 88 | 1011.7 |
| 20260508010521 | 12 | 0 | 0.0 | 3.2 | 0.00 | 0.91 | 0.76 | 88 | 1011.8 |
| 20260508010136 | 13 | 122 | 0.0 | 0.0 | 0.00 | 0.89 | 0.76 | 88 | 1013.7 |
| 20260508010055 | 12 | 0 | 0.0 | 3.2 | 0.00 | 0.91 | 0.76 | 88 | 1011.6 |
| 20260508005532 | 12 | 122 | 0.0 | 3.2 | 0.00 | 0.94 | 0.76 | 88 | 1011.6 |
| 20260508005126 | 13 | 122 | 0.0 | 0.0 | 0.00 | 0.89 | 0.76 | 88 | 1013.7 |
| 20260508005021 | 13 | 0 | 0.0 | 1.6 | 0.00 | 0.94 | 0.76 | 88 | 1011.6 |
| 20260508004554 | 13 | 122 | 0.0 | 1.6 | 0.00 | 0.94 | 0.76 | 88 | 1011.5 |
| 20260508004108 | 13 | 122 | 0.0 | 0.0 | 0.00 | 0.91 | 0.76 | 88 | 1013.5 |
| 20260508004021 | 13 | 0 | 0.0 | 1.6 | 0.00 | 0.94 | 0.76 | 88 | 1011.4 |
| 20260508003521 | 13 | 0 | 0.0 | 1.6 | 0.00 | 0.94 | 0.76 | 88 | 1011.5 |
| 20260508003110 | 13 | 122 | 0.0 | 0.0 | 0.00 | 0.91 | 0.76 | 88 | 1013.5 |
| 20260508003043 | 13 | 0 | 0.0 | 1.6 | 0.00 | 0.94 | 0.76 | 88 | 1011.5 |
| 20260508002522 | 13 | 0 | 0.0 | 1.6 | 0.00 | 0.94 | 0.76 | 88 | 1011.6 |
| 20260508002117 | 13 | 122 | 0.0 | 0.0 | 0.00 | 0.91 | 0.76 | 88 | 1013.6 |
| 20260508002021 | 13 | 0 | 0.0 | 3.2 | 0.00 | 0.94 | 0.76 | 88 | 1011.6 |
| 20260508001543 | 13 | 0 | 0.0 | 3.2 | 0.00 | 0.94 | 0.76 | 88 | 1011.6 |
| 20260508001107 | 13 | 122 | 0.0 | 1.6 | 0.00 | 0.91 | 0.76 | 88 | 1013.7 |
| 20260508001021 | 13 | 122 | 0.0 | 3.2 | 0.00 | 0.94 | 0.76 | 88 | 1011.5 |
| 20260508000525 | 13 | 0 | 0.0 | 0.0 | 0.00 | 0.94 | 0.76 | 88 | 1011.5 |
| 20260508000128 | 13 | 23 | 0.0 | 0.0 | 0.00 | 0.91 | 0.76 | 88 | 1013.6 |
| 20260508000038 | 13 | 0 | 0.0 | 1.6 | 0.00 | 0.94 | 0.76 | 88 | 1011.5 |
| 20260507235521 | 13 | 0 | 0.0 | 1.6 | 0.00 | 0.94 | 0.76 | 88 | 1011.4 |
| 20260507235106 | 13 | 23 | 0.0 | 0.0 | 0.00 | 0.91 | 0.76 | 88 | 1013.5 |
| 20260507235024 | 13 | 0 | 0.0 | 1.6 | 0.00 | 0.94 | 0.76 | 88 | 1011.4 |
| 20260507234542 | 13 | 0 | 0.0 | 1.6 | 0.00 | 0.94 | 0.76 | 88 | 1011.3 |
| 20260507234101 | 13 | 23 | 0.0 | 0.0 | 0.00 | 0.91 | 0.76 | 87 | 1013.3 |
| 20260507234020 | 13 | 0 | 0.0 | 3.2 | 0.00 | 0.94 | 0.76 | 87 | 1011.4 |
| 20260507233521 | 13 | 0 | 0.0 | 3.2 | 0.00 | 0.94 | 0.76 | 88 | 1011.2 |
| 20260507233118 | 13 | 98 | 0.0 | 0.0 | 0.00 | 0.91 | 0.76 | 88 | 1013.2 |
| 20260507233042 | 13 | 98 | 0.0 | 3.2 | 0.00 | 0.94 | 0.76 | 88 | 1011.0 |
| 20260507232520 | 13 | 98 | 0.0 | 3.2 | 0.00 | 0.94 | 0.76 | 88 | 1011.0 |
| 20260507232123 | 14 | 276 | 0.0 | 0.0 | 0.00 | 0.91 | 0.76 | 88 | 1013.0 |
| 20260507232020 | 13 | 0 | 0.0 | 3.2 | 0.00 | 0.94 | 0.76 | 88 | 1011.0 |
| 20260507231541 | 13 | 276 | 0.0 | 6.4 | 0.00 | 0.94 | 0.76 | 88 | 1010.8 |
| 20260507231021 | 13 | 0 | 0.0 | 6.4 | 0.00 | 0.94 | 0.76 | 88 | 1010.5 |
| 20260507230525 | 13 | 40 | 0.0 | 1.6 | 0.00 | 0.94 | 0.76 | 88 | 1010.5 |
| 20260507230040 | 13 | 0 | 0.0 | 4.8 | 0.00 | 0.94 | 0.76 | 88 | 1010.5 |
| 20260507230034 | 13 | 297 | 0.0 | 0.0 | 0.00 | 0.91 | 0.76 | 88 | 1012.5 |
| 20260507225521 | 13 | 0 | 0.0 | 4.8 | 0.00 | 0.94 | 0.76 | 88 | 1010.3 |
| 20260507225052 | 13 | 63 | 1.6 | 3.2 | 0.00 | 0.91 | 0.76 | 88 | 1012.4 |
| 20260507225022 | 13 | 5 | 1.6 | 6.4 | 0.00 | 0.94 | 0.76 | 88 | 1010.3 |
| 20260507224539 | 13 | 351 | 1.6 | 6.4 | 0.00 | 0.94 | 0.76 | 88 | 1010.3 |
| 20260507224109 | 13 | 3 | 0.0 | 3.2 | 0.00 | 0.91 | 0.76 | 88 | 1012.4 |
| 20260507224021 | 13 | 3 | 1.6 | 4.8 | 0.00 | 0.94 | 0.76 | 88 | 1010.4 |
| 20260507223523 | 13 | 0 | 1.6 | 4.8 | 0.00 | 0.94 | 0.76 | 88 | 1010.3 |
| 20260507223131 | 13 | 301 | 1.6 | 8.0 | 0.00 | 0.91 | 0.76 | 88 | 1012.4 |
| 20260507223042 | 13 | 325 | 0.0 | 9.7 | 0.00 | 0.94 | 0.76 | 88 | 1010.4 |
| 20260507222521 | 13 | 93 | 3.2 | 9.7 | 0.00 | 0.94 | 0.76 | 88 | 1010.3 |
| 20260507222020 | 13 | 317 | 3.2 | 9.7 | 0.00 | 0.94 | 0.76 | 88 | 1010.2 |
| 20260507221542 | 13 | 51 | 1.6 | 8.0 | 0.00 | 0.94 | 0.76 | 88 | 1010.1 |
| 20260507221021 | 13 | 322 | 3.2 | 8.0 | 0.00 | 0.94 | 0.76 | 88 | 1010.2 |
| 20260507221009 | 14 | 16 | 1.6 | 9.7 | 0.00 | 0.91 | 0.76 | 88 | 1012.2 |
| 20260507220521 | 13 | 264 | 1.6 | 9.7 | 0.00 | 0.94 | 0.76 | 88 | 1010.2 |
| 20260507220041 | 13 | 36 | 1.6 | 11.3 | 0.00 | 0.94 | 0.76 | 88 | 1010.0 |
| 20260507215953 | 13 | 72 | 1.6 | 9.7 | 0.00 | 0.91 | 0.76 | 88 | 1012.0 |
| 20260507215523 | 13 | 332 | 3.2 | 11.3 | 0.00 | 0.94 | 0.76 | 88 | 1010.0 |
| 20260507215020 | 13 | 125 | 3.2 | 6.4 | 0.00 | 0.94 | 0.76 | 88 | 1009.9 |
| 20260507214947 | 13 | 19 | 1.6 | 4.8 | 0.00 | 0.91 | 0.76 | 88 | 1011.9 |
| 20260507214540 | 13 | 85 | 3.2 | 9.7 | 0.00 | 0.94 | 0.76 | 88 | 1010.0 |
| 20260507214021 | 13 | 72 | 3.2 | 9.7 | 0.00 | 0.94 | 0.76 | 88 | 1010.0 |
| 20260507213952 | 13 | 80 | 1.6 | 9.7 | 0.00 | 0.91 | 0.76 | 88 | 1012.0 |
| 20260507213523 | 13 | 0 | 1.6 | 8.0 | 0.00 | 0.94 | 0.76 | 88 | 1010.0 |
| 20260507213037 | 13 | 166 | 1.6 | 11.3 | 0.00 | 0.94 | 0.76 | 88 | 1009.9 |
| 20260507212935 | 13 | 85 | 1.6 | 9.7 | 0.00 | 0.91 | 0.76 | 88 | 1011.9 |
| 20260507212521 | 13 | 1 | 1.6 | 11.3 | 0.00 | 0.94 | 0.76 | 88 | 1009.8 |
| 20260507212023 | 13 | 328 | 1.6 | 6.4 | 0.00 | 0.94 | 0.76 | 88 | 1009.8 |
| 20260507211535 | 13 | 351 | 3.2 | 14.5 | 0.03 | 0.94 | 0.76 | 88 | 1009.6 |
| 20260507211020 | 13 | 343 | 3.2 | 14.5 | 0.08 | 0.94 | 0.76 | 88 | 1009.6 |
| 20260507210845 | 13 | 347 | 3.2 | 14.5 | 0.00 | 0.91 | 0.76 | 88 | 1011.6 |
| 20260507210523 | 13 | 51 | 3.2 | 16.1 | 0.15 | 0.94 | 0.76 | 88 | 1009.7 |
| 20260507210052 | 13 | 89 | 3.2 | 16.1 | 0.18 | 0.94 | 0.76 | 88 | 1009.9 |
| 20260507205853 | 13 | 155 | 3.2 | 14.5 | 0.00 | 0.91 | 0.76 | 88 | 1011.9 |
| 20260507205521 | 13 | 18 | 1.6 | 14.5 | 0.18 | 0.94 | 0.76 | 88 | 1009.9 |
| 20260507205018 | 13 | 14 | 3.2 | 9.7 | 0.18 | 0.94 | 0.76 | 88 | 1010.0 |
| 20260507204818 | 13 | 33 | 1.6 | 6.4 | 0.00 | 0.91 | 0.76 | 88 | 1012.0 |
| 20260507204555 | 13 | 35 | 3.2 | 9.7 | 0.18 | 0.94 | 0.76 | 89 | 1009.9 |
| 20260507204018 | 13 | 50 | 1.6 | 11.3 | 0.20 | 0.94 | 0.76 | 89 | 1009.9 |
| 20260507203519 | 13 | 170 | 3.2 | 11.3 | 0.20 | 0.94 | 0.76 | 88 | 1009.8 |
| 20260507203041 | 13 | 68 | 3.2 | 9.7 | 0.20 | 0.94 | 0.76 | 88 | 1009.7 |
| 20260507202659 | 13 | 137 | 1.6 | 8.0 | 0.20 | 0.91 | 0.76 | 88 | 1011.8 |
| 20260507202518 | 13 | 106 | 1.6 | 6.4 | 0.23 | 0.94 | 0.76 | 88 | 1009.8 |
| 20260507202021 | 13 | 360 | 1.6 | 9.7 | 0.28 | 0.94 | 0.76 | 89 | 1009.5 |
| 20260507201630 | 13 | 125 | 1.6 | 8.0 | 0.69 | 0.86 | 0.71 | 88 | 1011.7 |
| 20260507201543 | 13 | 131 | 1.6 | 9.7 | 0.25 | 0.91 | 0.74 | 88 | 1009.8 |
| 20260507201018 | 13 | 12 | 1.6 | 6.4 | 0.18 | 0.84 | 0.66 | 88 | 1010.1 |
| 20260507200626 | 13 | 232 | 1.6 | 4.8 | 0.03 | 0.79 | 0.61 | 88 | 1012.3 |
| 20260507200522 | 13 | 96 | 1.6 | 6.4 | 0.13 | 0.79 | 0.61 | 88 | 1010.3 |
| 20260507200040 | 13 | 156 | 3.2 | 9.7 | 0.10 | 0.76 | 0.58 | 88 | 1010.2 |
| 20260507195622 | 13 | 307 | 1.6 | 8.0 | 0.03 | 0.76 | 0.58 | 88 | 1012.0 |
| 20260507195519 | 13 | 62 | 1.6 | 9.7 | 0.10 | 0.76 | 0.58 | 88 | 1009.9 |
| 20260507195021 | 13 | 133 | 1.6 | 9.7 | 0.10 | 0.76 | 0.58 | 88 | 1009.9 |
| 20260507194626 | 13 | 344 | 1.6 | 8.0 | 0.03 | 0.71 | 0.58 | 88 | 1012.1 |
| 20260507194543 | 13 | 263 | 0.0 | 8.0 | 0.10 | 0.76 | 0.58 | 88 | 1009.8 |
| 20260507194018 | 13 | 324 | 1.6 | 11.3 | 0.08 | 0.74 | 0.56 | 87 | 1009.8 |
| 20260507193608 | 14 | 95 | 1.6 | 8.0 | 0.15 | 0.71 | 0.53 | 87 | 1012.0 |
| 20260507193521 | 13 | 141 | 1.6 | 11.3 | 0.08 | 0.74 | 0.56 | 87 | 1010.1 |
| 20260507193043 | 13 | 330 | 3.2 | 8.0 | 0.08 | 0.74 | 0.56 | 87 | 1009.8 |
| 20260507192632 | 14 | 10 | 1.6 | 12.9 | 0.81 | 0.66 | 0.53 | 87 | 1012.2 |
| 20260507192518 | 14 | 16 | 3.2 | 11.3 | 0.03 | 0.69 | 0.51 | 87 | 1010.1 |
| 20260507192021 | 14 | 10 | 1.6 | 11.3 | 0.00 | 0.66 | 0.48 | 87 | 1009.7 |
| 20260507191627 | 14 | 70 | 3.2 | 12.9 | 0.00 | 0.66 | 0.48 | 87 | 1011.3 |
| 20260507191541 | 14 | 52 | 3.2 | 14.5 | 0.00 | 0.66 | 0.48 | 87 | 1009.4 |
| 20260507191018 | 14 | 3 | 3.2 | 14.5 | 0.00 | 0.66 | 0.48 | 87 | 1009.6 |
| 20260507190619 | 15 | 347 | 3.2 | 12.9 | 0.00 | 0.66 | 0.48 | 87 | 1011.5 |
| 20260507190603 | 14 | 0 | 4.8 | 14.5 | 0.00 | 0.66 | 0.48 | 87 | 1009.5 |
| 20260507190043 | 14 | 326 | 1.6 | 14.5 | 0.00 | 0.66 | 0.48 | 87 | 1009.9 |
| 20260507185554 | 15 | 68 | 3.2 | 12.9 | 0.00 | 0.66 | 0.48 | 87 | 1011.9 |
| 20260507185518 | 14 | 48 | 4.8 | 14.5 | 0.00 | 0.66 | 0.48 | 87 | 1009.9 |
| 20260507185024 | 15 | 49 | 3.2 | 14.5 | 0.00 | 0.66 | 0.48 | 87 | 1009.9 |
| 20260507184540 | 15 | 247 | 6.4 | 14.5 | 0.00 | 0.66 | 0.48 | 86 | 1009.6 |
| 20260507184536 | 15 | 80 | 4.8 | 16.1 | 0.00 | 0.66 | 0.48 | 86 | 1011.7 |
| 20260507184019 | 15 | 300 | 3.2 | 17.7 | 0.00 | 0.66 | 0.48 | 86 | 1009.7 |
| 20260507183521 | 15 | 85 | 8.0 | 20.9 | 0.00 | 0.66 | 0.48 | 86 | 1009.8 |
| 20260507183517 | 15 | 66 | 6.4 | 17.7 | 0.00 | 0.66 | 0.48 | 86 | 1011.9 |
| 20260507183041 | 15 | 10 | 8.0 | 20.9 | 0.00 | 0.66 | 0.48 | 85 | 1009.9 |
| 20260507182524 | 16 | 61 | 4.8 | 17.7 | 0.00 | 0.66 | 0.48 | 86 | 1011.8 |
| 20260507182521 | 16 | 61 | 11.3 | 19.3 | 0.00 | 0.66 | 0.48 | 86 | 1009.8 |
| 20260507182018 | 16 | 141 | 3.2 | 8.0 | 0.00 | 0.66 | 0.48 | 86 | 1009.5 |
| 20260507181535 | 16 | 355 | 1.6 | 11.3 | 0.00 | 0.66 | 0.48 | 86 | 1009.5 |
| 20260507181516 | 16 | 351 | 1.6 | 11.3 | 0.00 | 0.66 | 0.48 | 86 | 1011.6 |
| 20260507181019 | 16 | 0 | 1.6 | 12.9 | 0.00 | 0.66 | 0.48 | 86 | 1009.6 |
| 20260507180528 | 16 | 315 | 3.2 | 11.3 | 0.00 | 0.66 | 0.48 | 86 | 1011.6 |
| 20260507180521 | 16 | 343 | 3.2 | 12.9 | 0.00 | 0.66 | 0.48 | 86 | 1009.5 |
| 20260507180050 | 16 | 29 | 3.2 | 12.9 | 0.00 | 0.66 | 0.48 | 85 | 1009.5 |
| 20260507175535 | 16 | 270 | 1.6 | 12.9 | 0.00 | 0.66 | 0.48 | 85 | 1011.6 |
| 20260507175519 | 16 | 249 | 3.2 | 14.5 | 0.00 | 0.66 | 0.48 | 85 | 1009.6 |
| 20260507175021 | 16 | 357 | 1.6 | 17.7 | 0.00 | 0.66 | 0.48 | 85 | 1009.7 |
| 20260507174541 | 16 | 320 | 1.6 | 17.7 | 0.00 | 0.66 | 0.48 | 85 | 1009.4 |
| 20260507174022 | 16 | 110 | 6.4 | 17.7 | 0.00 | 0.66 | 0.48 | 86 | 1009.6 |
| 20260507173521 | 16 | 11 | 4.8 | 14.5 | 0.00 | 0.66 | 0.48 | 87 | 1009.5 |
| 20260507173510 | 17 | 54 | 3.2 | 16.1 | 0.00 | 0.66 | 0.48 | 87 | 1011.7 |
| 20260507173040 | 16 | 162 | 3.2 | 11.3 | 0.00 | 0.66 | 0.48 | 87 | 1009.8 |
| 20260507172521 | 16 | 58 | 4.8 | 11.3 | 0.00 | 0.66 | 0.48 | 87 | 1009.9 |
| 20260507172018 | 16 | 7 | 3.2 | 9.7 | 0.00 | 0.66 | 0.48 | 87 | 1010.1 |
| 20260507171542 | 16 | 7 | 3.2 | 9.7 | 0.00 | 0.66 | 0.48 | 87 | 1010.1 |
| 20260507171336 | 16 | 10 | 1.6 | 8.0 | 0.00 | 0.66 | 0.48 | 87 | 1012.1 |
| 20260507171020 | 16 | 18 | 3.2 | 9.7 | 0.00 | 0.66 | 0.48 | 87 | 1010.1 |
| 20260507170519 | 16 | 37 | 3.2 | 9.7 | 0.00 | 0.66 | 0.48 | 87 | 1010.0 |
| 20260507170356 | 17 | 75 | 1.6 | 8.0 | 0.00 | 0.66 | 0.48 | 87 | 1011.9 |
| 20260507170036 | 16 | 0 | 1.6 | 6.4 | 0.00 | 0.66 | 0.48 | 88 | 1010.0 |
| 20260507165519 | 17 | 55 | 1.6 | 12.9 | 0.00 | 0.66 | 0.48 | 88 | 1009.9 |
| 20260507165404 | 17 | 346 | 1.6 | 8.0 | 0.00 | 0.66 | 0.48 | 88 | 1012.0 |
| 20260507165023 | 17 | 283 | 1.6 | 12.9 | 0.00 | 0.66 | 0.48 | 88 | 1009.7 |
| 20260507164537 | 16 | 214 | 3.2 | 8.0 | 0.00 | 0.66 | 0.48 | 88 | 1009.4 |
| 20260507164400 | 17 | 60 | 1.6 | 6.4 | 0.00 | 0.66 | 0.48 | 88 | 1011.5 |
| 20260507164022 | 16 | 85 | 1.6 | 6.4 | 0.00 | 0.66 | 0.48 | 88 | 1009.5 |
| 20260507163521 | 16 | 25 | 1.6 | 8.0 | 0.00 | 0.66 | 0.48 | 88 | 1009.4 |
| 20260507163421 | 17 | 85 | 1.6 | 4.8 | 0.00 | 0.66 | 0.48 | 88 | 1011.5 |
| 20260507163044 | 16 | 171 | 1.6 | 12.9 | 0.00 | 0.66 | 0.48 | 89 | 1009.4 |
| 20260507162521 | 16 | 18 | 1.6 | 14.5 | 0.00 | 0.66 | 0.48 | 89 | 1009.4 |
| 20260507162416 | 16 | 307 | 3.2 | 16.1 | 0.00 | 0.66 | 0.48 | 89 | 1011.4 |
| 20260507162020 | 16 | 31 | 3.2 | 17.7 | 0.00 | 0.66 | 0.48 | 89 | 1009.3 |
| 20260507161542 | 16 | 347 | 4.8 | 17.7 | 0.00 | 0.66 | 0.48 | 89 | 1009.6 |
| 20260507161412 | 16 | 25 | 1.6 | 16.1 | 0.00 | 0.66 | 0.48 | 89 | 1011.6 |
| 20260507161020 | 16 | 283 | 1.6 | 9.7 | 0.00 | 0.66 | 0.48 | 89 | 1009.5 |
| 20260507160519 | 16 | 111 | 1.6 | 14.5 | 0.00 | 0.66 | 0.48 | 89 | 1009.6 |
| 20260507160355 | 16 | 30 | 3.2 | 16.1 | 0.00 | 0.66 | 0.48 | 89 | 1011.8 |
| 20260507160040 | 16 | 1 | 4.8 | 14.5 | 0.00 | 0.66 | 0.48 | 89 | 1009.5 |
| 20260507155522 | 16 | 52 | 3.2 | 17.7 | 0.00 | 0.66 | 0.48 | 89 | 1009.7 |
| 20260507155359 | 16 | 6 | 4.8 | 16.1 | 0.00 | 0.66 | 0.48 | 89 | 1011.7 |
| 20260507155022 | 16 | 66 | 6.4 | 17.7 | 0.00 | 0.66 | 0.48 | 89 | 1009.8 |
| 20260507154541 | 16 | 70 | 6.4 | 20.9 | 0.00 | 0.66 | 0.48 | 89 | 1009.8 |
| 20260507154406 | 16 | 15 | 4.8 | 14.5 | 0.00 | 0.66 | 0.48 | 89 | 1011.9 |
| 20260507154021 | 16 | 65 | 1.6 | 20.9 | 0.00 | 0.66 | 0.48 | 89 | 1009.8 |
| 20260507153521 | 17 | 80 | 3.2 | 8.0 | 0.00 | 0.66 | 0.48 | 89 | 1009.8 |
| 20260507153409 | 17 | 4 | 0.0 | 4.8 | 0.00 | 0.66 | 0.48 | 89 | 1011.9 |
| 20260507153046 | 17 | 102 | 0.0 | 3.2 | 0.00 | 0.66 | 0.48 | 89 | 1010.0 |
| 20260507152523 | 17 | 311 | 0.0 | 6.4 | 0.00 | 0.66 | 0.48 | 89 | 1010.0 |
| 20260507152404 | 18 | 311 | 0.0 | 0.0 | 0.00 | 0.66 | 0.48 | 89 | 1012.1 |
| 20260507152023 | 18 | 311 | 0.0 | 6.4 | 0.00 | 0.66 | 0.48 | 89 | 1010.1 |
| 20260507151543 | 18 | 254 | 0.0 | 4.8 | 0.00 | 0.66 | 0.48 | 89 | 1010.0 |
| 20260507151410 | 18 | 60 | 0.0 | 3.2 | 0.00 | 0.66 | 0.48 | 89 | 1012.0 |
| 20260507151023 | 17 | 59 | 1.6 | 4.8 | 0.00 | 0.66 | 0.48 | 89 | 1009.8 |
| 20260507150526 | 17 | 60 | 0.0 | 3.2 | 0.00 | 0.66 | 0.48 | 89 | 1009.9 |
| 20260507150357 | 18 | 39 | 0.0 | 1.6 | 0.00 | 0.66 | 0.48 | 89 | 1012.0 |
| 20260507150043 | 17 | 0 | 0.0 | 3.2 | 0.00 | 0.66 | 0.48 | 89 | 1010.0 |
| 20260507145527 | 17 | 0 | 0.0 | 3.2 | 0.00 | 0.66 | 0.48 | 89 | 1010.2 |
| 20260507145400 | 18 | 359 | 0.0 | 0.0 | 0.00 | 0.66 | 0.48 | 89 | 1012.1 |
| 20260507145022 | 17 | 359 | 0.0 | 3.2 | 0.00 | 0.66 | 0.48 | 89 | 1010.1 |
| 20260507144546 | 17 | 20 | 0.0 | 3.2 | 0.00 | 0.66 | 0.48 | 89 | 1009.5 |
| 20260507144420 | 18 | 20 | 0.0 | 0.0 | 0.00 | 0.66 | 0.48 | 89 | 1011.5 |
| 20260507144022 | 17 | 20 | 1.6 | 3.2 | 0.00 | 0.66 | 0.48 | 89 | 1009.4 |
| 20260507143525 | 17 | 331 | 0.0 | 3.2 | 0.00 | 0.66 | 0.48 | 89 | 1009.4 |
| 20260507143400 | 17 | 331 | 0.0 | 1.6 | 0.00 | 0.66 | 0.48 | 89 | 1011.4 |
| 20260507143042 | 17 | 322 | 0.0 | 3.2 | 0.03 | 0.66 | 0.48 | 89 | 1009.4 |
| 20260507142522 | 17 | 178 | 0.0 | 3.2 | 0.03 | 0.66 | 0.48 | 89 | 1009.4 |
| 20260507142356 | 17 | 178 | 0.0 | 0.0 | 0.00 | 0.66 | 0.48 | 89 | 1011.5 |
| 20260507142021 | 17 | 0 | 1.6 | 3.2 | 0.03 | 0.66 | 0.48 | 89 | 1009.5 |
| 20260507141539 | 17 | 0 | 0.0 | 4.8 | 0.03 | 0.66 | 0.48 | 89 | 1009.7 |
| 20260507141023 | 17 | 123 | 0.0 | 4.8 | 0.05 | 0.66 | 0.48 | 89 | 1009.4 |
| 20260507140522 | 17 | 114 | 0.0 | 4.8 | 0.08 | 0.66 | 0.48 | 89 | 1009.3 |
| 20260507140257 | 17 | 181 | 0.0 | 1.6 | 0.00 | 0.66 | 0.48 | 89 | 1011.4 |
| 20260507140048 | 17 | 181 | 0.0 | 3.2 | 0.08 | 0.66 | 0.48 | 89 | 1009.6 |
| 20260507135522 | 17 | 127 | 0.0 | 1.6 | 0.08 | 0.66 | 0.48 | 89 | 1009.6 |
| 20260507135223 | 17 | 127 | 0.0 | 0.0 | 0.00 | 0.66 | 0.48 | 89 | 1011.5 |
| 20260507135022 | 17 | 0 | 0.0 | 0.0 | 0.10 | 0.66 | 0.48 | 89 | 1009.5 |
| 20260507134544 | 17 | 0 | 0.0 | 1.6 | 0.13 | 0.66 | 0.48 | 89 | 1009.5 |
| 20260507134159 | 17 | 127 | 0.0 | 0.0 | 0.03 | 0.66 | 0.48 | 89 | 1011.5 |
| 20260507134023 | 17 | 0 | 0.0 | 3.2 | 0.15 | 0.66 | 0.48 | 89 | 1009.5 |
| 20260507133522 | 17 | 0 | 0.0 | 3.2 | 0.20 | 0.66 | 0.48 | 89 | 1009.3 |
| 20260507133144 | 17 | 127 | 0.0 | 1.6 | 0.10 | 0.64 | 0.46 | 89 | 1011.2 |
| 20260507133041 | 17 | 0 | 0.0 | 3.2 | 0.23 | 0.64 | 0.46 | 89 | 1009.2 |
| 20260507132526 | 17 | 0 | 0.0 | 6.4 | 0.25 | 0.64 | 0.46 | 89 | 1009.4 |
| 20260507132147 | 17 | 127 | 1.6 | 3.2 | 0.23 | 0.64 | 0.46 | 89 | 1011.4 |
| 20260507132021 | 17 | 0 | 0.0 | 6.4 | 0.25 | 0.64 | 0.46 | 89 | 1009.4 |
| 20260507131540 | 17 | 98 | 3.2 | 4.8 | 0.23 | 0.61 | 0.43 | 89 | 1009.2 |
| 20260507131158 | 17 | 120 | 0.0 | 1.6 | 0.10 | 0.58 | 0.43 | 89 | 1011.5 |
| 20260507131023 | 17 | 0 | 0.0 | 3.2 | 0.25 | 0.61 | 0.43 | 89 | 1009.7 |
| 20260507130527 | 17 | 143 | 0.0 | 3.2 | 0.25 | 0.58 | 0.41 | 89 | 1010.0 |
| 20260507130151 | 17 | 143 | 0.0 | 1.6 | 0.20 | 0.58 | 0.41 | 89 | 1011.9 |
| 20260507130050 | 17 | 143 | 0.0 | 4.8 | 0.25 | 0.58 | 0.41 | 89 | 1010.0 |
| 20260507125527 | 17 | 141 | 0.0 | 4.8 | 0.25 | 0.58 | 0.41 | 89 | 1010.1 |
| 20260507125207 | 17 | 178 | 0.0 | 3.2 | 0.33 | 0.53 | 0.38 | 89 | 1012.4 |
| 20260507125022 | 17 | 0 | 0.0 | 4.8 | 0.23 | 0.56 | 0.38 | 89 | 1010.5 |
| 20260507124546 | 17 | 151 | 0.0 | 3.2 | 0.23 | 0.53 | 0.36 | 89 | 1010.6 |
| 20260507124021 | 17 | 0 | 0.0 | 4.8 | 0.20 | 0.51 | 0.33 | 89 | 1011.0 |
| 20260507123522 | 17 | 0 | 0.0 | 4.8 | 0.13 | 0.43 | 0.25 | 89 | 1010.9 |
| 20260507123056 | 17 | 210 | 0.0 | 4.8 | 0.10 | 0.41 | 0.23 | 89 | 1010.6 |
| 20260507123011 | 17 | 210 | 0.0 | 3.2 | 0.10 | 0.41 | 0.23 | 89 | 1012.6 |
| 20260507122521 | 17 | 356 | 1.6 | 3.2 | 0.08 | 0.38 | 0.20 | 89 | 1010.4 |
| 20260507122022 | 17 | 305 | 0.0 | 4.8 | 0.08 | 0.38 | 0.20 | 89 | 1010.6 |
| 20260507122020 | 17 | 305 | 0.0 | 3.2 | 0.20 | 0.38 | 0.20 | 89 | 1012.6 |
| 20260507121548 | 17 | 230 | 1.6 | 4.8 | 0.08 | 0.38 | 0.20 | 89 | 1010.6 |
| 20260507121022 | 17 | 0 | 1.6 | 4.8 | 0.05 | 0.36 | 0.18 | 89 | 1010.3 |
| 20260507120952 | 17 | 171 | 1.6 | 3.2 | 0.03 | 0.33 | 0.15 | 89 | 1012.2 |
| 20260507120521 | 17 | 131 | 1.6 | 4.8 | 0.03 | 0.33 | 0.15 | 89 | 1010.1 |
| 20260507120045 | 17 | 167 | 1.6 | 3.2 | 0.03 | 0.33 | 0.15 | 89 | 1010.3 |
| 20260507120003 | 17 | 169 | 0.0 | 1.6 | 0.03 | 0.33 | 0.15 | 89 | 1012.4 |
| 20260507115521 | 17 | 0 | 0.0 | 3.2 | 0.03 | 0.33 | 0.15 | 89 | 1010.5 |
| 20260507115020 | 17 | 0 | 0.0 | 3.2 | 0.03 | 0.33 | 0.15 | 89 | 1010.4 |
| 20260507114934 | 17 | 209 | 0.0 | 1.6 | 0.03 | 0.28 | 0.15 | 89 | 1012.5 |
| 20260507114545 | 17 | 0 | 0.0 | 3.2 | 0.00 | 0.30 | 0.13 | 89 | 1010.3 |
| 20260507114024 | 17 | 0 | 0.0 | 3.2 | 0.00 | 0.30 | 0.13 | 89 | 1010.4 |
| 20260507113903 | 17 | 218 | 0.0 | 1.6 | 0.00 | 0.28 | 0.13 | 89 | 1012.4 |
| 20260507113522 | 17 | 0 | 0.0 | 1.6 | 0.00 | 0.30 | 0.13 | 89 | 1010.2 |
| 20260507113043 | 17 | 0 | 0.0 | 1.6 | 0.00 | 0.30 | 0.13 | 89 | 1010.3 |
| 20260507112856 | 17 | 218 | 0.0 | 0.0 | 0.00 | 0.28 | 0.13 | 89 | 1012.3 |
| 20260507112521 | 17 | 0 | 0.0 | 1.6 | 0.00 | 0.30 | 0.13 | 89 | 1010.3 |
| 20260507112021 | 17 | 0 | 0.0 | 1.6 | 0.00 | 0.30 | 0.13 | 89 | 1010.0 |
| 20260507111902 | 17 | 218 | 0.0 | 0.0 | 0.00 | 0.28 | 0.13 | 89 | 1012.0 |
| 20260507111545 | 17 | 0 | 0.0 | 1.6 | 0.00 | 0.30 | 0.13 | 89 | 1010.0 |
| 20260507111021 | 17 | 218 | 0.0 | 1.6 | 0.00 | 0.30 | 0.13 | 89 | 1009.8 |
| 20260507110521 | 17 | 0 | 0.0 | 1.6 | 0.00 | 0.30 | 0.13 | 89 | 1009.9 |
| 20260507110038 | 17 | 0 | 0.0 | 1.6 | 0.00 | 0.30 | 0.13 | 89 | 1009.8 |
| 20260507105755 | 17 | 233 | 0.0 | 0.0 | 0.00 | 0.28 | 0.13 | 89 | 1011.9 |
| 20260507105521 | 17 | 0 | 0.0 | 1.6 | 0.00 | 0.30 | 0.13 | 89 | 1009.9 |
| 20260507105021 | 17 | 0 | 0.0 | 3.2 | 0.00 | 0.30 | 0.13 | 89 | 1010.0 |
| 20260507104803 | 17 | 233 | 0.0 | 0.0 | 0.00 | 0.28 | 0.13 | 89 | 1012.0 |
| 20260507104543 | 17 | 0 | 0.0 | 3.2 | 0.00 | 0.30 | 0.13 | 89 | 1009.8 |
| 20260507104024 | 17 | 0 | 0.0 | 3.2 | 0.00 | 0.30 | 0.13 | 89 | 1009.9 |
| 20260507103733 | 17 | 237 | 0.0 | 0.0 | 0.00 | 0.28 | 0.13 | 89 | 1011.9 |
| 20260507103521 | 16 | 0 | 0.0 | 4.8 | 0.00 | 0.30 | 0.13 | 89 | 1009.8 |
| 20260507103042 | 17 | 282 | 1.6 | 6.4 | 0.00 | 0.30 | 0.13 | 89 | 1010.0 |
| 20260507102724 | 17 | 229 | 1.6 | 4.8 | 0.00 | 0.28 | 0.13 | 89 | 1011.8 |
| 20260507102521 | 17 | 0 | 0.0 | 6.4 | 0.00 | 0.30 | 0.13 | 89 | 1009.7 |
| 20260507102021 | 17 | 130 | 3.2 | 6.4 | 0.00 | 0.30 | 0.13 | 89 | 1009.7 |
| 20260507101723 | 17 | 166 | 0.0 | 1.6 | 0.00 | 0.28 | 0.13 | 89 | 1011.6 |
| 20260507101546 | 16 | 143 | 1.6 | 4.8 | 0.00 | 0.30 | 0.13 | 89 | 1009.7 |
| 20260507101022 | 16 | 0 | 0.0 | 4.8 | 0.00 | 0.30 | 0.13 | 89 | 1009.8 |
| 20260507100703 | 17 | 170 | 0.0 | 3.2 | 0.00 | 0.28 | 0.13 | 89 | 1011.9 |
| 20260507100520 | 16 | 170 | 1.6 | 4.8 | 0.00 | 0.30 | 0.13 | 89 | 1009.9 |
| 20260507100041 | 16 | 145 | 0.0 | 4.8 | 0.00 | 0.30 | 0.13 | 89 | 1009.9 |
| 20260507095701 | 17 | 145 | 1.6 | 3.2 | 0.00 | 0.28 | 0.13 | 89 | 1011.8 |
| 20260507095522 | 16 | 145 | 1.6 | 4.8 | 0.00 | 0.30 | 0.13 | 89 | 1009.7 |
| 20260507095023 | 17 | 147 | 1.6 | 4.8 | 0.00 | 0.30 | 0.13 | 89 | 1009.8 |
| 20260507094636 | 17 | 129 | 0.0 | 1.6 | 0.00 | 0.28 | 0.13 | 89 | 1012.0 |
| 20260507094540 | 17 | 153 | 0.0 | 3.2 | 0.00 | 0.30 | 0.13 | 89 | 1009.9 |
| 20260507094022 | 16 | 0 | 0.0 | 3.2 | 0.00 | 0.30 | 0.13 | 89 | 1010.0 |
| 20260507093523 | 17 | 153 | 0.0 | 4.8 | 0.00 | 0.30 | 0.13 | 89 | 1010.0 |
| 20260507093039 | 17 | 0 | 1.6 | 4.8 | 0.00 | 0.30 | 0.13 | 89 | 1010.0 |
| 20260507092524 | 17 | 171 | 0.0 | 3.2 | 0.00 | 0.30 | 0.13 | 89 | 1009.7 |
| 20260507092515 | 17 | 214 | 0.0 | 0.0 | 0.00 | 0.28 | 0.13 | 89 | 1011.8 |
| 20260507092023 | 16 | 0 | 0.0 | 1.6 | 0.00 | 0.30 | 0.13 | 89 | 1009.7 |
| 20260507091542 | 16 | 214 | 0.0 | 1.6 | 0.00 | 0.30 | 0.13 | 89 | 1009.7 |
| 20260507091531 | 17 | 214 | 0.0 | 0.0 | 0.00 | 0.28 | 0.13 | 89 | 1011.8 |
| 20260507091022 | 17 | 0 | 0.0 | 3.2 | 0.00 | 0.30 | 0.13 | 89 | 1010.0 |
| 20260507090531 | 17 | 197 | 0.0 | 0.0 | 0.00 | 0.28 | 0.13 | 89 | 1012.4 |
| 20260507090525 | 17 | 0 | 0.0 | 3.2 | 0.00 | 0.30 | 0.13 | 89 | 1010.3 |
| 20260507090042 | 17 | 0 | 0.0 | 3.2 | 0.00 | 0.30 | 0.13 | 89 | 1010.5 |
| 20260507085551 | 17 | 248 | 0.0 | 0.0 | 0.00 | 0.28 | 0.13 | 89 | 1012.5 |
| 20260507085522 | 17 | 0 | 0.0 | 3.2 | 0.00 | 0.30 | 0.13 | 89 | 1010.4 |
| 20260507085022 | 17 | 0 | 0.0 | 3.2 | 0.00 | 0.30 | 0.13 | 89 | 1010.4 |
| 20260507084609 | 17 | 325 | 0.0 | 3.2 | 0.00 | 0.28 | 0.13 | 89 | 1012.1 |
| 20260507084548 | 17 | 325 | 0.0 | 3.2 | 0.00 | 0.30 | 0.13 | 89 | 1010.0 |
| 20260507084031 | 17 | 276 | 0.0 | 3.2 | 0.00 | 0.30 | 0.13 | 89 | 1009.5 |
| 20260507083522 | 17 | 228 | 0.0 | 4.8 | 0.00 | 0.30 | 0.13 | 89 | 1009.4 |
| 20260507083048 | 17 | 0 | 0.0 | 4.8 | 0.03 | 0.30 | 0.13 | 89 | 1009.4 |
| 20260507082523 | 17 | 180 | 1.6 | 4.8 | 0.03 | 0.30 | 0.13 | 89 | 1009.5 |
| 20260507082424 | 17 | 209 | 0.0 | 3.2 | 0.00 | 0.28 | 0.13 | 89 | 1011.5 |
| 20260507082022 | 17 | 270 | 1.6 | 11.3 | 0.03 | 0.30 | 0.13 | 89 | 1009.5 |
| 20260507081540 | 17 | 162 | 3.2 | 11.3 | 0.05 | 0.30 | 0.13 | 89 | 1009.6 |
| 20260507081448 | 17 | 133 | 3.2 | 9.7 | 0.00 | 0.28 | 0.13 | 89 | 1011.7 |
| 20260507081022 | 17 | 178 | 3.2 | 11.3 | 0.05 | 0.30 | 0.13 | 89 | 1009.7 |
| 20260507080524 | 17 | 199 | 1.6 | 11.3 | 0.05 | 0.30 | 0.13 | 89 | 1009.8 |
| 20260507080437 | 17 | 229 | 3.2 | 9.7 | 0.00 | 0.28 | 0.13 | 89 | 1011.7 |
| 20260507080042 | 17 | 0 | 3.2 | 11.3 | 0.05 | 0.30 | 0.13 | 89 | 1009.6 |
| 20260507075522 | 17 | 200 | 3.2 | 12.9 | 0.08 | 0.30 | 0.13 | 89 | 1009.5 |
| 20260507075411 | 17 | 196 | 4.8 | 11.3 | 0.00 | 0.28 | 0.13 | 89 | 1011.5 |
| 20260507075022 | 17 | 160 | 3.2 | 12.9 | 0.10 | 0.30 | 0.13 | 89 | 1009.4 |
| 20260507074546 | 17 | 167 | 4.8 | 12.9 | 0.10 | 0.30 | 0.13 | 89 | 1009.5 |
| 20260507074405 | 17 | 195 | 3.2 | 16.1 | 0.10 | 0.28 | 0.13 | 89 | 1011.6 |
| 20260507074022 | 17 | 137 | 3.2 | 16.1 | 0.10 | 0.30 | 0.13 | 89 | 1009.8 |
| 20260507073523 | 17 | 166 | 6.4 | 17.7 | 0.10 | 0.30 | 0.13 | 89 | 1009.7 |
| 20260507073415 | 17 | 166 | 6.4 | 16.1 | 0.10 | 0.28 | 0.13 | 89 | 1011.6 |
| 20260507073047 | 17 | 164 | 9.7 | 17.7 | 0.08 | 0.28 | 0.10 | 89 | 1009.9 |
| 20260507072522 | 17 | 135 | 4.8 | 11.3 | 0.08 | 0.28 | 0.10 | 89 | 1010.3 |
| 20260507072410 | 17 | 154 | 4.8 | 8.0 | 0.03 | 0.28 | 0.10 | 89 | 1012.5 |
| 20260507072022 | 17 | 172 | 4.8 | 9.7 | 0.08 | 0.28 | 0.10 | 89 | 1010.3 |
| 20260507071558 | 17 | 198 | 3.2 | 9.7 | 0.05 | 0.25 | 0.08 | 89 | 1010.4 |